Regional Weather Roundup
Issued by NWS

Home | Current Version | Previous Version | Text Only | Print | Product List | Glossary Off
Versions: 1 2 3 4 5 6 7 8 9 10 11 12 13 14 15 16 17 18 19 20 21 22 23 24 25 26 27 28 29 30 31 32 33 34 35 36 37 38 39 40 41 42 43 44 45 46 47 48 49 50

000
ASUS43 KIND 312109
RWRIN

WEATHER ROUNDUP FOR INDIANA
NATIONAL WEATHER SERVICE INDIANAPOLIS IN
500 PM EDT FRI JUL 31 2015

NOTE: "FAIR" INDICATES FEW OR NO CLOUDS BELOW 12,000 FEET WITH NO
SIGNIFICANT WEATHER AND/OR OBSTRUCTIONS TO VISIBILITY.

* - STATION DOES NOT REPORT WEATHER SUCH AS PRECIPITATION OR FOG.

+ - STATION NOT QUALITY CONTROLLED BY THE NATIONAL WEATHER SERVICE.
    USE DATA WITH CAUTION...ESPECIALLY DEWPOINT AND RELATIVE
    HUMIDITY OBSERVATIONS.

INZ001>003-010>013-019-020-312200-
NORTHWEST INDIANA

CITY           SKY/WX    TMP DP  RH WIND       PRES   REMARKS
GARY /AIRPORT/ MOSUNNY   88  52  29 W18G39    29.94F
KNOX *+        SUNNY     84  54  34 N14       29.93S
LA PORTE +     SUNNY     86  55  35 NW9       29.95F
MICHIGAN CITY+ SUNNY     81  55  41 NW9       29.95S
MONTICELLO +   SUNNY     85  60  42 NW18G25   29.95S
RENSSELAER +   SUNNY     84  57  39 W7G20     29.96F
VALPARAISO     MOSUNNY   86  54  33 W12       29.94F

$$

LMZ046-743>745-312200-
SOUTHERN LAKE MICHIGAN

STATION/POSITION TIME  TEMP    WIND        PRES    WAVE
                       AIR SEA DIR/SP/G            HT
                 (UTC) (F)     (DEG/KT/KT) (MB)    (FT)
BURNS HARBOR     2000   80      10/  1/  4 1014.6F
MICHIGAN CITY    2000   79     250/  5/  6   N/A
5NW MICH CITY    2100   78 75  330/  8/ 10   N/A     1

$$

INZ004-005-014>016-021>024-312200-
NORTH CENTRAL INDIANA

CITY           SKY/WX    TMP DP  RH WIND       PRES   REMARKS
ELKHART        SUNNY     84  50  30 W14G23    29.94F
GOSHEN         SUNNY     83  54  36 NW15      29.93F
LOGANSPORT +   MOSUNNY   86  48  26 W10G20    29.95F
PERU/GRISSOM   MOSUNNY   85  66  53 W16       29.93F
ROCHESTER +    SUNNY     88  54  31 W14G20    29.93F
SOUTH BEND     SUNNY     85  54  34 NW17G24   29.94F
WARSAW +       PTSUNNY   82  54  36 NW10      29.93F

$$

INZ006>009-017-018-025>027-312200-
NORTHEAST INDIANA

CITY           SKY/WX    TMP DP  RH WIND       PRES   REMARKS
ANGOLA *+      SUNNY     84  54  34 NW12      29.92F
AUBURN +       MOSUNNY   86  50  28 W16G23    29.93S
FORT WAYNE     MOSUNNY   82  64  54 W8        29.94F
HUNTINGTON +   MOSUNNY   79  67  67 NW6       29.94F

$$

INZ028-029-035-036-043>045-051>053-312200-
WEST CENTRAL INDIANA

CITY           SKY/WX    TMP DP  RH WIND       PRES   REMARKS
CRAWFORDSVL +  MOSUNNY   83  57  40 W10G17      N/A
GREENCASTLE +  SUNNY     86  55  35 NW12G20   30.01S
LAFAYETTE      SUNNY     85  57  38 W14G26    29.96S
TERRE HAUTE    MOSUNNY   88  62  41 NW12      30.01S

$$

INZ030>032-037>040-046>048-054>057-064-065-312200-
CENTRAL INDIANA

CITY           SKY/WX    TMP DP  RH WIND       PRES   REMARKS
FISHERS *+     MOSUNNY   84  66  54 W18       29.98F
FRANKFORT +    SUNNY     86  67  53 W14G21    29.99F
GREENWOOD *+   SUNNY     86  55  35 W8        30.00F
INDIANAPOLIS   MOSUNNY   87  61  41 W20G26    29.98F
-EAGLE CREEK   MOSUNNY   86  62  44 W18       29.97F
KOKOMO *+      PTSUNNY   81  64  57 W10       29.95F
MARION +       PTSUNNY   82  62  51 W10G22    29.96S HAZE
MT COMFORT *+  SUNNY     86  48  26 W14G20    29.99S
SHELBYVILLE    SUNNY     87  61  41 W13       29.98F
ZIONSVILLE +   MOSUNNY   85  61  44 W17G23    29.99S

$$

INZ033-034-041-042-049-050-058-059-312200-
EAST CENTRAL INDIANA

CITY           SKY/WX    TMP DP  RH WIND       PRES   REMARKS
MUNCIE         MOSUNNY   84  62  47 W13G28    29.95F

$$

INZ060-061-067>069-081>083-085>088-312200-
SOUTHWEST INDIANA

CITY           SKY/WX    TMP DP  RH WIND       PRES   REMARKS
EVANSVILLE     SUNNY     90  64  42 VRB7      30.03F
HUNTINGBURG *+ SUNNY     88  61  40 W6        30.03S
WASHINGTON +   SUNNY     88  57  35 W7        30.01F

$$

INZ062-063-066-070>080-084-089>092-312200-
SOUTH CENTRAL AND SOUTHEAST INDIANA

CITY           SKY/WX    TMP DP  RH WIND       PRES   REMARKS
BLOOMINGTON    SUNNY     85  63  47 NW5       30.02F
MADISON *+     SUNNY     86  54  32 W6        30.03F
NORTH VERNON + SUNNY     90  50  25 W3        30.01F
SEYMOUR +      SUNNY     91  61  35 W6        30.00F

$$




USA.gov is the U.S. government's official web portal to all federal, state and local government web resources and services.